OK,58,42,876,58,2014-10-01T01:40:00,0,28072646,187907
OK,58,42,876,58,2014-10-01T01:45:00,0,28073093,187907
OK,58,42,876,58,2014-10-01T01:50:00,0,28073541,187907
OK,58,42,876,58,2014-10-01T01:55:00,0,28073859,187907
OK,58,42,876,58,2014-10-01T02:00:00,0,28074308,187907
OK,58,42,876,58,2014-10-01T02:05:00,0,28074749,187907
OK,58,42,876,58,2014-10-01T02:10:00,0,28075197,187907
OK,58,42,876,58,2014-10-01T02:15:00,0,28075646,187907
OK,58,42,876,58,2014-10-01T02:20:00,0,28076033,187907
OK,58,42,876,58,2014-10-01T02:25:00,0,28076478,187907
OK,58,42,876,58,2014-10-01T02:30:00,0,28076927,187907
OK,58,42,876,58,2014-10-01T02:35:00,0,28077376,187907
OK,58,42,876,58,2014-10-01T02:40:00,0,28077780,187907
OK,58,42,876,58,2014-10-01T02:45:00,0,28078228,187907
OK,58,42,876,58,2014-10-01T02:50:00,0,28078673,187907
OK,58,42,876,58,2014-10-01T02:55:00,0,28079122,187907
OK,58,42,876,58,2014-10-01T03:00:00,0,28079564,187907
OK,58,42,876,58,2014-10-01T03:05:00,0,28080013,187907
OK,58,42,876,58,2014-10-01T03:10:00,0,28080348,187907
OK,58,42,876,58,2014-10-01T03:15:00,0,28080796,187907
OK,58,42,876,58,2014-10-01T03:20:00,0,28081245,187907
OK,58,42,876,58,2014-10-01T03:25:00,0,28081692,187907
OK,48,51,876,48,2014-10-01T03:30:00,1,28082141,187907
OK,48,51,876,48,2014-10-01T03:35:00,0,28082576,187907
OK,48,51,876,48,2014-10-01T03:40:00,0,28083006,187907
OK,48,51,876,48,2014-10-01T03:45:00,0,28083455,187907
OK,48,51,876,48,2014-10-01T03:50:00,0,28083904,187907
OK,48,51,876,48,2014-10-01T03:55:00,0,28084346,187907
OK,48,51,876,48,2014-10-01T04:00:00,0,28084773,187907
OK,82,30,876,82,2014-10-01T04:05:00,1,28085219,187907
OK,82,30,876,82,2014-10-01T04:10:00,0,28085664,187907
OK,82,30,876,82,2014-10-01T04:15:00,0,28086113,187907
OK,82,30,876,82,2014-10-01T04:20:00,0,28086555,187907
OK,82,30,876,82,2014-10-01T04:25:00,0,28087004,187907
OK,82,30,876,82,2014-10-01T04:30:00,0,28087449,187907
OK,82,30,876,82,2014-10-01T04:35:00,0,28087898,187907
OK,60,41,876,60,2014-10-01T04:40:00,1,28088324,187907
OK,108,23,876,108,2014-10-01T04:45:00,2,28088771,187907
OK,101,24,876,101,2014-10-01T04:50:00,2,28089202,187907
OK,50,49,876,50,2014-10-01T04:55:00,2,28089650,187907
OK,45,55,876,45,2014-10-01T05:05:00,1,28090099,187907
OK,55,45,876,55,2014-10-01T05:10:00,1,28090892,187907
OK,55,45,876,55,2014-10-01T05:15:00,1,28091341,187907
OK,59,42,876,59,2014-10-01T05:20:00,1,28091759,187907
OK,66,37,876,66,2014-10-01T05:25:00,2,28092207,187907
OK,61,40,876,61,2014-10-01T05:30:00,2,28092652,187907
OK,48,51,876,48,2014-10-01T05:35:00,1,28093092,187907
OK,48,51,876,48,2014-10-01T05:40:00,0,28093523,187907
OK,44,56,876,44,2014-10-01T05:45:00,1,28093972,187907
OK,44,56,876,44,2014-10-01T05:50:00,1,28094386,187907
OK,164,15,876,164,2014-10-01T05:55:00,1,28094828,187907
OK,115,21,876,115,2014-10-01T06:00:00,2,28095275,187907
OK,66,37,876,66,2014-10-01T06:05:00,0,28095724,187907
OK,68,36,876,68,2014-10-01T06:10:00,1,28096138,187907
OK,68,36,876,68,2014-10-01T06:15:00,3,28096586,187907
OK,63,39,876,63,2014-10-01T06:20:00,2,28097021,187907
OK,67,37,876,67,2014-10-01T06:25:00,1,28097469,187907
OK,67,37,876,67,2014-10-01T06:30:00,1,28097918,187907
OK,54,46,876,54,2014-10-01T06:35:00,2,28098357,187907
OK,52,47,876,52,2014-10-01T06:40:00,3,28098799,187907
OK,40,62,876,40,2014-10-01T06:45:00,1,28099247,187907
OK,41,60,876,41,2014-10-01T06:50:00,2,28099591,187907
OK,54,46,876,54,2014-10-01T06:55:00,2,28100039,187907
OK,53,46,876,53,2014-10-01T07:00:00,3,28100347,187907
OK,50,49,876,50,2014-10-01T07:05:00,2,28100795,187907
OK,47,52,876,47,2014-10-01T07:10:00,0,28101166,187907
OK,46,54,876,46,2014-10-01T07:15:00,1,28101615,187907
OK,46,54,876,46,2014-10-01T07:20:00,3,28102052,187907
OK,42,59,876,42,2014-10-01T07:25:00,2,28102500,187907
OK,47,52,876,47,2014-10-01T07:30:00,1,28102931,187907
OK,47,52,876,47,2014-10-01T07:35:00,0,28103374,187907
OK,47,52,876,47,2014-10-01T07:40:00,1,28103819,187907
OK,47,52,876,47,2014-10-01T07:45:00,1,28104264,187907
OK,47,52,876,47,2014-10-01T07:50:00,0,28104706,187907
OK,58,42,876,58,2014-10-01T07:55:00,2,28105150,187907
OK,51,48,876,51,2014-10-01T08:00:00,3,28105591,187907
OK,47,52,876,47,2014-10-01T08:05:00,0,28106039,187907
OK,63,39,876,63,2014-10-01T08:10:00,3,28106476,187907
OK,55,45,876,55,2014-10-01T08:15:00,2,28106883,187907
OK,48,51,876,48,2014-10-01T08:20:00,1,28107314,187907
OK,48,51,876,48,2014-10-01T08:25:00,0,28107763,187907
OK,48,51,876,48,2014-10-01T08:30:00,0,28108202,187907
OK,48,51,876,48,2014-10-01T08:35:00,0,28108651,187907
OK,61,40,876,61,2014-10-01T08:40:00,1,28109080,187907
OK,50,49,876,50,2014-10-01T08:45:00,2,28109528,187907
OK,47,52,876,47,2014-10-01T08:50:00,2,28109871,187907
OK,51,48,876,51,2014-10-01T08:55:00,2,28110320,187907
OK,49,50,876,49,2014-10-01T09:00:00,3,28110743,187907
OK,49,50,876,49,2014-10-01T09:05:00,6,28111192,187907
OK,51,48,876,51,2014-10-01T09:10:00,5,28111621,187907
OK,129,19,876,129,2014-10-01T09:15:00,1,28112070,187907
OK,129,19,876,129,2014-10-01T09:20:00,0,28112411,187907
OK,84,29,876,84,2014-10-01T09:25:00,2,28112860,187907
OK,84,29,876,84,2014-10-01T09:30:00,2,28113284,187907
OK,60,41,876,60,2014-10-01T09:35:00,3,28113733,187907
OK,58,42,876,58,2014-10-01T09:40:00,4,28114165,187907
OK,55,45,876,55,2014-10-01T09:45:00,1,28114614,187907
OK,55,45,876,55,2014-10-01T09:50:00,0,28114968,187907
OK,55,45,876,55,2014-10-01T09:55:00,5,28115417,187907
OK,55,45,876,55,2014-10-01T10:00:00,5,28115830,187907
OK,76,32,876,76,2014-10-01T10:05:00,2,28116278,187907
OK,109,22,876,109,2014-10-01T10:10:00,1,28116687,187907
OK,47,52,876,47,2014-10-01T10:15:00,1,28117135,187907
OK,47,52,876,47,2014-10-01T10:20:00,1,28117560,187907
OK,55,45,876,55,2014-10-01T10:25:00,1,28118009,187907
OK,55,45,876,55,2014-10-01T10:30:00,2,28118454,187907
OK,75,33,876,75,2014-10-01T10:35:00,2,28118901,187907
OK,112,22,876,112,2014-10-01T10:40:00,2,28119345,187907
OK,129,19,876,129,2014-10-01T10:45:00,0,28119793,187907
OK,49,50,876,49,2014-10-01T10:50:00,1,28120241,187907
OK,49,50,876,49,2014-10-01T10:55:00,1,28120690,187907
OK,44,56,876,44,2014-10-01T11:00:00,1,28121073,187907
OK,41,60,876,41,2014-10-01T11:05:00,2,28121522,187907
OK,52,47,876,52,2014-10-01T11:10:00,2,28121960,187907
OK,55,45,876,55,2014-10-01T11:15:00,2,28122409,187907
OK,66,37,876,66,2014-10-01T11:20:00,3,28122850,187907
OK,65,38,876,65,2014-10-01T11:25:00,4,28123299,187907
OK,64,38,876,64,2014-10-01T11:30:00,0,28123731,187907
OK,53,46,876,53,2014-10-01T11:35:00,1,28124180,187907
OK,53,46,876,53,2014-10-01T11:40:00,1,28124583,187907
OK,53,46,876,53,2014-10-01T11:45:00,0,28125031,187907
OK,61,40,876,61,2014-10-01T11:50:00,1,28125460,187907
OK,61,40,876,61,2014-10-01T11:55:00,2,28125909,187907
OK,60,41,876,60,2014-10-01T12:00:00,3,28126261,187907
OK,54,46,876,54,2014-10-01T12:05:00,1,28126710,187907
OK,146,17,876,146,2014-10-01T12:10:00,2,28127159,187907
OK,137,18,876,137,2014-10-01T12:15:00,3,28127608,187907
OK,137,18,876,137,2014-10-01T12:20:00,3,28128036,187907
OK,69,36,876,69,2014-10-01T12:25:00,5,28128485,187907
OK,69,36,876,69,2014-10-01T12:30:00,3,28128920,187907
OK,66,37,876,66,2014-10-01T12:35:00,0,28129369,187907
OK,66,37,876,66,2014-10-01T12:40:00,0,28129803,187907
OK,66,37,876,66,2014-10-01T12:45:00,0,28130252,187907
OK,69,36,876,69,2014-10-01T12:50:00,1,28130680,187907
OK,68,36,876,68,2014-10-01T12:55:00,3,28131129,187907
OK,56,44,876,56,2014-10-01T13:00:00,1,28131566,187907
OK,56,44,876,56,2014-10-01T13:05:00,0,28132015,187907
OK,69,36,876,69,2014-10-01T13:10:00,1,28132453,187907
OK,69,36,876,69,2014-10-01T13:15:00,2,28132900,187907
OK,72,34,876,72,2014-10-01T13:20:00,2,28133338,187907
OK,53,46,876,53,2014-10-01T13:25:00,3,28133787,187907
OK,50,49,876,50,2014-10-01T13:30:00,2,28134226,187907
OK,53,46,876,53,2014-10-01T13:35:00,0,28134675,187907
OK,61,40,876,61,2014-10-01T13:40:00,1,28135094,187907
OK,94,26,876,94,2014-10-01T13:45:00,4,28135543,187907
OK,72,34,876,72,2014-10-01T13:50:00,7,28135980,187907
OK,69,36,876,69,2014-10-01T13:55:00,4,28136429,187907
OK,132,18,876,132,2014-10-01T14:00:00,2,28136869,187907
OK,132,18,876,132,2014-10-01T14:05:00,2,28137318,187907
OK,79,31,876,79,2014-10-01T14:10:00,3,28137752,187907
OK,75,33,876,75,2014-10-01T14:15:00,5,28138201,187907
OK,57,43,876,57,2014-10-01T14:20:00,2,28138629,187907
OK,78,31,876,78,2014-10-01T14:25:00,2,28139078,187907
OK,77,32,876,77,2014-10-01T14:30:00,3,28139489,187907
OK,82,30,876,82,2014-10-01T14:35:00,4,28139938,187907
OK,86,28,876,86,2014-10-01T14:40:00,2,28140380,187907
OK,82,30,876,82,2014-10-01T14:45:00,0,28140829,187907
OK,82,30,876,82,2014-10-01T14:50:00,0,28141255,187907
OK,49,50,876,49,2014-10-01T14:55:00,1,28141704,187907
OK,49,50,876,49,2014-10-01T15:00:00,1,28142132,187907
OK,52,47,876,52,2014-10-01T15:05:00,1,28142581,187907
OK,52,47,876,52,2014-10-01T15:10:00,1,28143008,187907
OK,51,48,876,51,2014-10-01T15:15:00,2,28143457,187907
OK,53,46,876,53,2014-10-01T15:20:00,3,28143905,187907
OK,60,41,876,60,2014-10-01T15:25:00,3,28144354,187907
OK,53,46,876,53,2014-10-01T15:30:00,2,28144776,187907
OK,60,41,876,60,2014-10-01T15:35:00,0,28145189,187907
OK,71,35,876,71,2014-10-01T15:40:00,1,28145638,187907
OK,71,35,876,71,2014-10-01T15:45:00,1,28146087,187907
OK,71,35,876,71,2014-10-01T15:50:00,0,28146536,187907
OK,71,35,876,71,2014-10-01T15:55:00,0,28146946,187907
OK,55,45,876,55,2014-10-01T16:00:00,1,28147388,187907
OK,55,45,876,55,2014-10-01T16:05:00,1,28147837,187907
OK,55,45,876,55,2014-10-01T16:10:00,0,28148238,187907
OK,55,45,876,55,2014-10-01T16:15:00,0,28148687,187907
OK,55,45,876,55,2014-10-01T16:20:00,0,28149126,187907
OK,68,36,876,68,2014-10-01T16:25:00,1,28149575,187907
OK,68,36,876,68,2014-10-01T16:30:00,1,28150001,187907
OK,54,46,876,54,2014-10-01T16:35:00,2,28150450,187907
OK,54,46,876,54,2014-10-01T16:40:00,2,28150868,187907
OK,89,27,876,89,2014-10-01T16:45:00,1,28151317,187907
OK,89,27,876,89,2014-10-01T16:50:00,1,28151766,187907
OK,56,44,876,56,2014-10-01T17:00:00,1,28152215,187907
OK,56,44,876,56,2014-10-01T17:05:00,0,28152661,187907
OK,56,44,876,56,2014-10-01T17:10:00,0,28153108,187907
OK,49,50,876,49,2014-10-01T17:15:00,1,28153557,187907
OK,49,50,876,49,2014-10-01T17:20:00,1,28153968,187907
OK,55,45,876,55,2014-10-01T17:25:00,1,28154416,187907
OK,57,43,876,57,2014-10-01T17:30:00,2,28154858,187907
OK,59,42,876,59,2014-10-01T17:35:00,1,28155306,187907
OK,59,42,876,59,2014-10-01T17:40:00,0,28155725,187907
OK,59,42,876,59,2014-10-01T17:45:00,0,28156173,187907
OK,59,42,876,59,2014-10-01T17:50:00,0,28156622,187907
OK,59,42,876,59,2014-10-01T17:55:00,0,28157060,187907
OK,59,42,876,59,2014-10-01T18:00:00,0,28157490,187907
OK,47,52,876,47,2014-10-01T18:05:00,1,28157938,187907
OK,62,40,876,62,2014-10-01T18:10:00,1,28158382,187907
OK,61,40,876,61,2014-10-01T18:15:00,2,28158828,187907
OK,60,41,876,60,2014-10-01T18:20:00,1,28159274,187907
OK,60,41,876,60,2014-10-01T18:25:00,0,28159609,187907
OK,36,69,876,36,2014-10-01T18:30:00,1,28160058,187907
OK,36,69,876,36,2014-10-01T18:35:00,1,28160507,187907
OK,36,69,876,36,2014-10-01T18:40:00,0,28160945,187907
OK,36,69,876,36,2014-10-01T18:45:00,0,28161394,187907
OK,36,69,876,36,2014-10-01T18:50:00,0,28161811,187907
OK,36,69,876,36,2014-10-01T18:55:00,0,28162260,187907
OK,91,27,876,91,2014-10-01T19:00:00,1,28162657,187907
OK,91,27,876,91,2014-10-01T19:05:00,1,28163093,187907
OK,53,46,876,53,2014-10-01T19:10:00,1,28163541,187907
OK,53,46,876,53,2014-10-01T19:15:00,1,28163990,187907
OK,53,46,876,53,2014-10-01T19:20:00,0,28164421,187907
OK,130,19,876,130,2014-10-01T19:25:00,1,28164870,187907
OK,130,19,876,130,2014-10-01T19:30:00,1,28165295,187907
OK,130,19,876,130,2014-10-01T19:35:00,0,28165743,187907
OK,130,19,876,130,2014-10-01T19:40:00,0,28166184,187907
OK,130,19,876,130,2014-10-01T19:45:00,0,28166546,187907
OK,59,42,876,59,2014-10-01T19:50:00,1,28166995,187907
OK,59,42,876,59,2014-10-01T19:55:00,1,28167424,187907
OK,59,42,876,59,2014-10-01T20:00:00,0,28167858,187907
OK,59,42,876,59,2014-10-01T20:05:00,0,28168306,187907
OK,61,40,876,61,2014-10-01T20:10:00,1,28168751,187907
OK,61,40,876,61,2014-10-01T20:15:00,1,28169200,187907
OK,61,40,876,61,2014-10-01T20:20:00,1,28169648,187907
OK,61,40,876,61,2014-10-01T20:25:00,1,28170074,187907
OK,61,40,876,61,2014-10-01T20:30:00,0,28170519,187907
OK,61,40,876,61,2014-10-01T20:35:00,0,28170967,187907
OK,61,40,876,61,2014-10-01T20:40:00,0,28171404,187907
OK,61,40,876,61,2014-10-01T20:45:00,0,28171850,187907
OK,61,40,876,61,2014-10-01T20:50:00,0,28172298,187907
OK,61,40,876,61,2014-10-01T20:55:00,0,28172744,187907
OK,61,40,876,61,2014-10-01T21:00:00,0,28173190,187907
OK,47,52,876,47,2014-10-01T21:05:00,1,28173639,187907
OK,47,52,876,47,2014-10-01T21:10:00,1,28174080,187907
OK,47,52,876,47,2014-10-01T21:15:00,0,28174529,187907
OK,47,52,876,47,2014-10-01T21:20:00,0,28174955,187907
OK,60,41,876,60,2014-10-01T21:25:00,1,28175351,187907
OK,56,44,876,56,2014-10-01T21:30:00,1,28175800,187907
OK,56,44,876,56,2014-10-01T21:35:00,1,28176249,187907
OK,56,44,876,56,2014-10-01T21:40:00,0,28176698,187907
OK,56,44,876,56,2014-10-01T21:45:00,0,28177057,187907
OK,56,44,876,56,2014-10-01T21:50:00,0,28177494,187907
OK,56,44,876,56,2014-10-01T21:55:00,0,28177940,187907
OK,56,44,876,56,2014-10-01T22:00:00,0,28178389,187907
OK,56,44,876,56,2014-10-01T22:05:00,0,28178836,187907
OK,56,44,876,56,2014-10-01T22:10:00,0,28179270,187907
OK,56,44,876,56,2014-10-01T22:15:00,0,28179713,187907
OK,56,44,876,56,2014-10-01T22:20:00,0,28180160,187907
OK,56,44,876,56,2014-10-01T22:25:00,0,28180558,187907
OK,56,44,876,56,2014-10-01T22:30:00,0,28181007,187907
OK,56,44,876,56,2014-10-01T22:35:00,0,28181431,187907
OK,56,44,876,56,2014-10-01T22:40:00,0,28181879,187907
OK,56,44,876,56,2014-10-01T22:45:00,0,28182326,187907
OK,56,44,876,56,2014-10-01T22:50:00,0,28182775,187907
OK,56,44,876,56,2014-10-01T22:55:00,0,28183192,187907
OK,56,44,876,56,2014-10-01T23:00:00,0,28183625,187907
OK,56,44,876,56,2014-10-01T23:05:00,0,28184070,187907
OK,56,44,876,56,2014-10-01T23:10:00,0,28184519,187907
OK,56,44,876,56,2014-10-01T23:15:00,0,28184954,187907
OK,56,44,876,56,2014-10-01T23:20:00,0,28185402,187907
OK,56,44,876,56,2014-10-01T23:25:00,0,28185833,187907
OK,56,44,876,56,2014-10-01T23:30:00,0,28186225,187907
OK,56,44,876,56,2014-10-01T23:40:00,0,28187072,187907
OK,56,44,876,56,2014-10-01T23:55:00,0,28188404,187907
OK,56,44,876,56,2014-10-02T00:00:00,0,28188840,187907
OK,56,44,876,56,2014-10-02T00:05:00,0,28189289,187907
OK,56,44,876,56,2014-10-02T00:10:00,0,28189711,187907
OK,56,44,876,56,2014-10-02T00:15:00,0,28190160,187907
OK,56,44,876,56,2014-10-02T00:20:00,0,28190513,187907
OK,56,44,876,56,2014-10-02T00:25:00,0,28190962,187907
OK,56,44,876,56,2014-10-02T00:30:00,0,28191411,187907
OK,56,44,876,56,2014-10-02T00:35:00,0,28191717,187907
OK,56,44,876,56,2014-10-02T00:40:00,0,28192166,187907
OK,56,44,876,56,2014-10-02T00:45:00,0,28192599,187907
OK,56,44,876,56,2014-10-02T00:50:00,0,28193043,187907
OK,56,44,876,56,2014-10-02T00:55:00,0,28193410,187907
OK,56,44,876,56,2014-10-02T01:05:00,0,28194308,187907
OK,56,44,876,56,2014-10-02T01:15:00,0,28194757,187907
OK,56,44,876,56,2014-10-02T01:20:00,0,28195442,187907
OK,56,44,876,56,2014-10-02T01:30:00,0,28195891,187907
OK,56,44,876,56,2014-10-02T01:35:00,0,28196624,187907
OK,56,44,876,56,2014-10-02T01:40:00,0,28197047,187907
OK,56,44,876,56,2014-10-02T01:45:00,0,28197496,187907
OK,56,44,876,56,2014-10-02T01:50:00,0,28197944,187907
OK,56,44,876,56,2014-10-02T01:55:00,0,28198392,187907
OK,56,44,876,56,2014-10-02T02:00:00,0,28198841,187907
OK,56,44,876,56,2014-10-02T02:05:00,0,28199217,187907
OK,56,44,876,56,2014-10-02T02:10:00,0,28199655,187907
OK,56,44,876,56,2014-10-02T02:15:00,0,28200097,187907
OK,56,44,876,56,2014-10-02T02:20:00,0,28200540,187907
OK,56,44,876,56,2014-10-02T02:25:00,0,28200989,187907
OK,56,44,876,56,2014-10-02T02:30:00,0,28201420,187907
OK,45,55,876,45,2014-10-02T02:45:00,0,28202318,187907
OK,45,55,876,45,2014-10-02T02:50:00,0,28202760,187907
OK,45,55,876,45,2014-10-02T02:55:00,0,28203208,187907
OK,45,55,876,45,2014-10-02T03:00:00,0,28203643,187907
OK,45,55,876,45,2014-10-02T03:10:00,0,28204092,187907
OK,45,55,876,45,2014-10-02T03:25:00,0,28204541,187907
OK,45,55,876,45,2014-10-02T03:30:00,0,28204990,187907
OK,45,55,876,45,2014-10-02T03:35:00,0,28205418,187907
OK,45,55,876,45,2014-10-02T03:40:00,0,28205865,187907
OK,45,55,876,45,2014-10-02T03:45:00,0,28206248,187907
OK,45,55,876,45,2014-10-02T03:55:00,0,28207146,187907
OK,45,55,876,45,2014-10-02T04:00:00,0,28207566,187907
OK,45,55,876,45,2014-10-02T04:05:00,0,28208014,187907
OK,45,55,876,45,2014-10-02T04:10:00,0,28208441,187907
OK,45,55,876,45,2014-10-02T04:15:00,0,28208890,187907
OK,45,55,876,45,2014-10-02T04:20:00,0,28209328,187907
OK,45,55,876,45,2014-10-02T04:25:00,0,28209777,187907
OK,112,22,876,112,2014-10-02T04:30:00,1,28210200,187907
OK,112,22,876,112,2014-10-02T04:35:00,1,28210649,187907
OK,112,22,876,112,2014-10-02T04:40:00,0,28211074,187907
OK,112,22,876,112,2014-10-02T04:45:00,0,28211518,187907
OK,112,22,876,112,2014-10-02T04:50:00,0,28211896,187907
OK,112,22,876,112,2014-10-02T04:55:00,0,28212345,187907
OK,112,22,876,112,2014-10-02T05:00:00,0,28212774,187907
OK,53,46,876,53,2014-10-02T05:05:00,2,28213223,187907
OK,53,46,876,53,2014-10-02T05:10:00,2,28213661,187907
OK,46,54,876,46,2014-10-02T05:15:00,1,28214110,187907
OK,46,54,876,46,2014-10-02T05:20:00,1,28214524,187907
OK,46,54,876,46,2014-10-02T05:25:00,0,28214972,187907
OK,46,54,876,46,2014-10-02T05:30:00,0,28215388,187907
OK,46,54,876,46,2014-10-02T05:40:00,0,28215837,187907
OK,46,54,876,46,2014-10-02T05:45:00,0,28216616,187907
OK,46,54,876,46,2014-10-02T05:50:00,0,28217063,187907
OK,167,14,876,167,2014-10-02T05:55:00,1,28217512,187907
OK,96,25,876,96,2014-10-02T06:00:00,1,28217951,187907
OK,96,25,876,96,2014-10-02T06:05:00,1,28218400,187907
OK,96,25,876,96,2014-10-02T06:10:00,0,28218820,187907
OK,96,25,876,96,2014-10-02T06:15:00,0,28219269,187907
OK,96,25,876,96,2014-10-02T06:20:00,0,28219642,187907
OK,54,46,876,54,2014-10-02T06:25:00,2,28220091,187907
OK,57,43,876,57,2014-10-02T06:30:00,3,28220525,187907
OK,73,34,876,73,2014-10-02T06:35:00,1,28220974,187907
OK,61,40,876,61,2014-10-02T06:40:00,1,28221359,187907
OK,61,40,876,61,2014-10-02T06:45:00,0,28221641,187907
OK,62,40,876,62,2014-10-02T07:00:00,4,28222235,187907
OK,109,22,876,109,2014-10-02T07:05:00,2,28222684,187907
OK,72,34,876,72,2014-10-02T07:10:00,0,28223115,187907
OK,72,34,876,72,2014-10-02T07:15:00,0,28223551,187907
OK,72,34,876,72,2014-10-02T07:20:00,0,28223998,187907
OK,53,46,876,53,2014-10-02T07:25:00,1,28224353,187907
OK,53,46,876,53,2014-10-02T07:30:00,0,28224802,187907
OK,50,49,876,50,2014-10-02T07:35:00,0,28225251,187907
OK,50,49,876,50,2014-10-02T07:40:00,0,28225574,187907
OK,59,42,876,59,2014-10-02T07:50:00,2,28226463,187907
OK,71,35,876,71,2014-10-02T07:55:00,1,28226912,187907
OK,71,35,876,71,2014-10-02T08:00:00,0,28227328,187907
OK,55,45,876,55,2014-10-02T08:05:00,2,28227776,187907
OK,51,48,876,51,2014-10-02T08:10:00,1,28228135,187907
OK,57,43,876,57,2014-10-02T08:15:00,1,28228584,187907
OK,57,43,876,57,2014-10-02T08:20:00,1,28228995,187907
OK,54,46,876,54,2014-10-02T08:25:00,2,28229443,187907
OK,54,46,876,54,2014-10-02T08:30:00,2,28229793,187907
OK,34,73,876,34,2014-10-02T08:35:00,2,28230242,187907
OK,38,65,876,38,2014-10-02T08:40:00,0,28230611,187907
OK,38,65,876,38,2014-10-02T08:45:00,0,28231057,187907
OK,38,65,876,38,2014-10-02T08:50:00,0,28231480,187907
OK,58,42,876,58,2014-10-02T08:55:00,1,28231929,187907
OK,58,42,876,58,2014-10-02T09:00:00,0,28232271,187907
OK,58,42,876,58,2014-10-02T09:10:00,0,28232720,187907
OK,60,41,876,60,2014-10-02T09:15:00,1,28233169,187907
OK,60,41,876,60,2014-10-02T09:20:00,0,28233593,187907
OK,48,51,876,48,2014-10-02T09:25:00,0,28234042,187907
OK,48,51,876,48,2014-10-02T09:30:00,0,28234375,187907
OK,48,51,876,48,2014-10-02T09:35:00,0,28234824,187907
OK,48,51,876,48,2014-10-02T09:40:00,0,28235251,187907
OK,52,47,876,52,2014-10-02T09:45:00,3,28235700,187907
OK,34,73,876,34,2014-10-02T09:50:00,1,28236143,187907
OK,34,73,876,34,2014-10-02T09:55:00,0,28236590,187907
OK,34,73,876,34,2014-10-02T10:00:00,0,28236993,187907
OK,34,73,876,34,2014-10-02T10:05:00,0,28237441,187907
OK,60,41,876,60,2014-10-02T10:10:00,3,28237889,187907
OK,59,42,876,59,2014-10-02T10:15:00,2,28238336,187907
OK,54,46,876,54,2014-10-02T10:20:00,2,28238777,187907
OK,58,42,876,58,2014-10-02T10:25:00,2,28239226,187907
OK,58,42,876,58,2014-10-02T10:30:00,0,28239656,187907
OK,71,35,876,71,2014-10-02T10:35:00,2,28240105,187907
OK,63,39,876,63,2014-10-02T10:40:00,2,28240549,187907
OK,56,44,876,56,2014-10-02T10:45:00,4,28240998,187907
OK,65,38,876,65,2014-10-02T10:50:00,2,28241431,187907
OK,51,48,876,51,2014-10-02T10:55:00,1,28241878,187907
OK,51,48,876,51,2014-10-02T11:00:00,0,28242274,187907
OK,51,48,876,51,2014-10-02T11:05:00,0,28242723,187907
OK,51,48,876,51,2014-10-02T11:15:00,0,28243172,187907
OK,61,40,876,61,2014-10-02T11:20:00,1,28243935,187907
OK,61,40,876,61,2014-10-02T11:25:00,1,28244364,187907
OK,61,40,876,61,2014-10-02T11:30:00,0,28244813,187907
OK,47,52,876,47,2014-10-02T11:35:00,1,28245262,187907
OK,47,52,876,47,2014-10-02T11:40:00,0,28245668,187907
OK,47,52,876,47,2014-10-02T11:45:00,0,28246117,187907
OK,47,52,876,47,2014-10-02T11:50:00,0,28246554,187907
OK,46,54,876,46,2014-10-02T11:55:00,3,28247003,187907
OK,38,65,876,38,2014-10-02T12:00:00,2,28247449,187907
OK,30,82,876,30,2014-10-02T12:05:00,0,28247879,187907
OK,30,82,876,30,2014-10-02T12:10:00,0,28248328,187907
OK,161,15,876,161,2014-10-02T12:15:00,0,28248775,187907
OK,161,15,876,161,2014-10-02T12:20:00,0,28249203,187907
OK,101,24,876,101,2014-10-02T12:25:00,1,28249647,187907
OK,101,24,876,101,2014-10-02T12:30:00,1,28250066,187907
OK,101,24,876,101,2014-10-02T12:35:00,0,28250464,187907
OK,70,35,876,70,2014-10-02T12:45:00,3,28251244,187907
OK,137,18,876,137,2014-10-02T13:20:00,5,28251789,187907
OK,78,31,876,78,2014-10-02T13:30:00,2,28252373,187907
OK,94,26,876,94,2014-10-02T13:35:00,1,28252815,187907
OK,94,26,876,94,2014-10-02T13:40:00,0,28253232,187907
OK,59,42,876,59,2014-10-02T13:45:00,3,28253681,187907
OK,59,42,876,59,2014-10-02T13:50:00,3,28254086,187907
OK,52,47,876,52,2014-10-02T13:55:00,3,28254407,187907
OK,74,33,876,74,2014-10-02T14:10:00,5,28254984,187907
OK,143,17,876,143,2014-10-02T14:15:00,3,28255433,187907
OK,105,23,876,105,2014-10-02T14:20:00,4,28255861,187907
OK,63,39,876,63,2014-10-02T14:25:00,2,28256310,187907
OK,72,34,876,72,2014-10-02T14:30:00,4,28256738,187907
OK,46,54,876,46,2014-10-02T14:35:00,1,28257187,187907
OK,46,54,876,46,2014-10-02T14:40:00,0,28257628,187907
OK,63,39,876,63,2014-10-02T14:45:00,2,28258076,187907
OK,60,41,876,60,2014-10-02T14:50:00,1,28258509,187907
OK,60,41,876,60,2014-10-02T14:55:00,0,28258955,187907
OK,60,41,876,60,2014-10-02T15:00:00,0,28259404,187907
OK,60,41,876,60,2014-10-02T15:05:00,0,28259851,187907
OK,60,41,876,60,2014-10-02T15:10:00,0,28260284,187907
OK,60,41,876,60,2014-10-02T15:15:00,0,28260733,187907
OK,60,41,876,60,2014-10-02T15:20:00,0,28261173,187907
OK,170,14,876,170,2014-10-02T15:25:00,1,28261555,187907
OK,170,14,876,170,2014-10-02T15:30:00,0,28261985,187907
OK,41,60,876,41,2014-10-02T15:40:00,0,28262878,187907
OK,41,60,876,41,2014-10-02T15:45:00,0,28263316,187907
OK,41,60,876,41,2014-10-02T15:50:00,0,28263757,187907
OK,41,60,876,41,2014-10-02T15:55:00,0,28264159,187907
OK,41,60,876,41,2014-10-02T16:00:00,0,28264608,187907
OK,51,48,876,51,2014-10-02T16:05:00,3,28265046,187907
OK,51,48,876,51,2014-10-02T16:10:00,3,28265486,187907
OK,50,49,876,50,2014-10-02T16:15:00,0,28265882,187907
OK,62,40,876,62,2014-10-02T16:20:00,1,28266331,187907